DLH2505 UTDD-UBBB

Flight info

Callsign DLH2505
Flight time 2h 20m
Altitude 36000
Route SOPNO1A SOPNO Q169 INDUD Z777 MANAT/N0469F360 R226 AKRAM A477 BABUM A909 RODAR M11 AMOKU
Aircraft A346/H-SDE2E3FGHIJ3J4J5M1RWXY/LB1D1

Departure

Time 2026-04-26 15:39
Airport Dushanbe International Airport (UTDD)

Arrival

Time 2026-04-26 17:59
Airport Heydar Aliyev International Airport (UBBB)
Time Latitude Longitude Altitude Speed Heading
2026-04-26 15:05 38.54768 68.81203 2582 ft 0 kts 359°
2026-04-26 15:31 38.54740 68.81202 2590 ft 3 kts 356°
2026-04-26 15:31 38.54721 68.81205 2590 ft 3 kts 344°
2026-04-26 15:32 38.54695 68.81222 2590 ft 3 kts 312°
2026-04-26 15:32 38.54686 68.81244 2588 ft 3 kts 277°
2026-04-26 15:32 38.54686 68.81252 2582 ft 0 kts 271°
2026-04-26 15:34 38.54686 68.81236 2581 ft 7 kts 271°
2026-04-26 15:34 38.54688 68.81160 2581 ft 10 kts 272°
2026-04-26 15:34 38.54690 68.81064 2588 ft 12 kts 272°
2026-04-26 15:34 38.54692 68.80954 2587 ft 13 kts 270°
2026-04-26 15:35 38.54693 68.80835 2585 ft 14 kts 270°
2026-04-26 15:35 38.54693 68.80725 2584 ft 8 kts 268°
2026-04-26 15:35 38.54658 68.80676 2582 ft 9 kts 195°
2026-04-26 15:35 38.54589 68.80669 2587 ft 11 kts 180°
2026-04-26 15:36 38.54512 68.80669 2584 ft 5 kts 180°
2026-04-26 15:36 38.54511 68.80669 2590 ft 0 kts 180°
2026-04-26 15:36 38.54474 68.80669 2590 ft 9 kts 180°
2026-04-26 15:37 38.54408 68.80670 2582 ft 5 kts 168°
2026-04-26 15:37 38.54377 68.80700 2588 ft 6 kts 127°
2026-04-26 15:37 38.54371 68.80720 2588 ft 0 kts 89°
2026-04-26 15:38 38.54371 68.80721 2590 ft 0 kts 89°
2026-04-26 15:38 38.54372 68.80961 2588 ft 60 kts 90°
2026-04-26 15:38 38.54371 68.81778 2584 ft 122 kts 90°
2026-04-26 15:38 38.54369 68.83095 2585 ft 172 kts 90°
2026-04-26 15:39 38.54358 68.84776 2779 ft 199 kts 90°
2026-04-26 15:39 38.54348 68.86581 3399 ft 204 kts 89°
2026-04-26 15:39 38.54344 68.88382 4258 ft 199 kts 89°
2026-04-26 15:39 38.54345 68.89555 4662 ft 200 kts 89°
2026-04-26 15:40 38.54351 68.92045 5064 ft 219 kts 89°
2026-04-26 15:40 38.54353 68.94061 5357 ft 234 kts 90°
2026-04-26 15:40 38.54355 68.96223 5626 ft 251 kts 90°
2026-04-26 15:40 38.54356 68.98530 5927 ft 267 kts 90°
2026-04-26 15:41 38.54357 69.00966 6330 ft 279 kts 90°
2026-04-26 15:41 38.54357 69.03468 6942 ft 283 kts 90°
2026-04-26 15:41 38.54332 69.06011 7608 ft 286 kts 96°
2026-04-26 15:41 38.53705 69.08410 8204 ft 288 kts 125°
2026-04-26 15:42 38.52281 69.10188 8823 ft 289 kts 150°
2026-04-26 15:42 38.50384 69.11008 9434 ft 292 kts 176°
2026-04-26 15:42 38.48344 69.11037 10079 ft 294 kts 181°
2026-04-26 15:42 38.46277 69.10995 10608 ft 303 kts 181°
2026-04-26 15:43 38.44108 69.10965 10922 ft 320 kts 180°
2026-04-26 15:43 38.41820 69.10937 11240 ft 337 kts 183°
2026-04-26 15:43 38.37350 69.08550 11828 ft 373 kts 223°
2026-04-26 15:44 38.35790 69.05843 12196 ft 388 kts 245°
2026-04-26 15:44 38.35094 68.99012 13679 ft 394 kts 270°
2026-04-26 15:44 38.35109 68.95501 14416 ft 397 kts 270°
2026-04-26 15:45 38.35209 68.88390 15792 ft 406 kts 278°
2026-04-26 15:45 38.36065 68.84952 16424 ft 411 kts 296°
2026-04-26 15:46 38.39822 68.79447 17740 ft 418 kts 316°
2026-04-26 15:46 38.41941 68.76957 18014 ft 420 kts 316°
2026-04-26 15:46 38.44102 68.74408 18062 ft 420 kts 316°
2026-04-26 15:46 38.44826 68.73550 18063 ft 419 kts 316°
2026-04-26 15:47 38.48372 68.69316 18106 ft 423 kts 316°
2026-04-26 15:47 38.52541 68.63946 19299 ft 426 kts 303°
2026-04-26 15:47 38.53841 68.60565 19940 ft 424 kts 286°
2026-04-26 15:48 38.54309 68.56854 20548 ft 424 kts 271°
2026-04-26 15:48 38.54317 68.53072 21150 ft 426 kts 269°
2026-04-26 15:48 38.54310 68.49239 21698 ft 430 kts 269°
2026-04-26 15:48 38.54306 68.45403 22244 ft 433 kts 269°
2026-04-26 15:49 38.54307 68.41540 22783 ft 436 kts 269°
2026-04-26 15:49 38.54312 68.37648 23306 ft 438 kts 269°
2026-04-26 15:49 38.54315 68.35009 23656 ft 440 kts 270°
2026-04-26 15:49 38.54322 68.29802 24331 ft 444 kts 270°
2026-04-26 15:50 38.54326 68.27134 24673 ft 445 kts 269°
2026-04-26 15:50 38.54332 68.23142 25202 ft 446 kts 269°
2026-04-26 15:50 38.54336 68.19195 25724 ft 447 kts 269°
2026-04-26 15:50 38.54337 68.15213 26256 ft 448 kts 269°
2026-04-26 15:51 38.54337 68.11167 26789 ft 449 kts 269°
2026-04-26 15:51 38.54365 68.07177 27296 ft 449 kts 270°
2026-04-26 15:51 38.54520 68.03181 27786 ft 450 kts 272°
2026-04-26 15:51 38.54707 67.99201 28381 ft 447 kts 272°
2026-04-26 15:52 38.54897 67.95250 29096 ft 442 kts 272°
2026-04-26 15:52 38.55081 67.91404 29800 ft 437 kts 271°
2026-04-26 15:52 38.55268 67.87494 30490 ft 432 kts 271°
2026-04-26 15:52 38.55387 67.84964 30923 ft 428 kts 271°
2026-04-26 15:53 38.55621 67.79908 31730 ft 424 kts 271°
2026-04-26 15:53 38.55791 67.76211 32359 ft 420 kts 271°
2026-04-26 15:53 38.55962 67.72489 32858 ft 418 kts 271°
2026-04-26 15:53 38.56132 67.68779 33336 ft 417 kts 271°
2026-04-26 15:54 38.56297 67.65091 33825 ft 414 kts 271°
2026-04-26 15:54 38.56461 67.61422 34237 ft 413 kts 271°
2026-04-26 15:54 38.56624 67.57757 34611 ft 412 kts 271°
2026-04-26 15:54 38.56786 67.54092 34993 ft 412 kts 271°
2026-04-26 15:55 38.56949 67.50420 35316 ft 413 kts 271°
2026-04-26 15:55 38.57109 67.46739 35598 ft 415 kts 271°
2026-04-26 15:55 38.57270 67.43016 35810 ft 417 kts 271°
2026-04-26 15:55 38.57431 67.39302 36041 ft 419 kts 271°
2026-04-26 15:56 38.57594 67.35579 36058 ft 419 kts 271°
2026-04-26 15:56 38.57912 67.28124 36074 ft 419 kts 271°
2026-04-26 15:57 38.58223 67.20664 36082 ft 420 kts 271°
2026-04-26 15:57 38.58528 67.13204 36083 ft 420 kts 271°
2026-04-26 15:58 38.58829 67.05742 36088 ft 420 kts 271°
2026-04-26 15:58 38.59127 66.98245 36086 ft 421 kts 271°
2026-04-26 15:59 38.59421 66.90765 36079 ft 421 kts 271°
2026-04-26 15:59 38.59711 66.83277 36086 ft 421 kts 271°
2026-04-26 16:00 38.59993 66.75801 36080 ft 421 kts 271°
2026-04-26 16:00 38.60271 66.68306 36077 ft 421 kts 271°
2026-04-26 16:01 38.60544 66.60818 36078 ft 421 kts 271°
2026-04-26 16:01 38.60817 66.53281 36076 ft 421 kts 271°
2026-04-26 16:02 38.61083 66.45782 36076 ft 422 kts 271°
2026-04-26 16:02 38.61344 66.38283 36078 ft 422 kts 271°
2026-04-26 16:03 38.61636 66.30783 36078 ft 422 kts 272°
2026-04-26 16:03 38.62362 66.23367 36071 ft 423 kts 277°
2026-04-26 16:04 38.63649 66.15991 36070 ft 425 kts 282°
2026-04-26 16:04 38.65295 66.08681 36066 ft 426 kts 283°
2026-04-26 16:05 38.66953 66.01398 36066 ft 426 kts 283°
2026-04-26 16:05 38.68610 65.94113 36073 ft 426 kts 283°
2026-04-26 16:06 38.70267 65.86815 36066 ft 426 kts 283°
2026-04-26 16:06 38.71924 65.79494 36071 ft 426 kts 283°
2026-04-26 16:07 38.73573 65.72186 36066 ft 427 kts 283°
2026-04-26 16:07 38.75224 65.64844 36069 ft 427 kts 283°
2026-04-26 16:08 38.76866 65.57523 36066 ft 427 kts 283°
2026-04-26 16:08 38.78509 65.50167 36067 ft 428 kts 283°
2026-04-26 16:09 38.80144 65.42827 36071 ft 427 kts 283°
2026-04-26 16:09 38.81775 65.35487 36073 ft 427 kts 283°
2026-04-26 16:10 38.83389 65.28197 36076 ft 427 kts 283°
2026-04-26 16:10 38.85015 65.20828 36076 ft 428 kts 283°
2026-04-26 16:11 38.86634 65.13475 36077 ft 428 kts 283°
2026-04-26 16:11 38.88249 65.06097 36088 ft 428 kts 283°
2026-04-26 16:12 38.89853 64.98732 36091 ft 428 kts 283°
2026-04-26 16:12 38.92253 64.87682 36096 ft 427 kts 283°
2026-04-26 16:13 38.93844 64.80319 36097 ft 427 kts 283°
2026-04-26 16:13 38.95434 64.72946 36103 ft 427 kts 283°
2026-04-26 16:14 38.97020 64.65572 36105 ft 427 kts 283°
2026-04-26 16:15 38.99388 64.54512 36105 ft 427 kts 283°
2026-04-26 16:15 39.00967 64.47101 36110 ft 428 kts 283°
2026-04-26 16:16 39.03323 64.36005 36113 ft 428 kts 283°
2026-04-26 16:16 39.04892 64.28586 36112 ft 428 kts 282°
2026-04-26 16:17 39.06452 64.21182 36121 ft 428 kts 282°
2026-04-26 16:17 39.08010 64.13771 36121 ft 428 kts 283°
2026-04-26 16:18 39.10549 64.02692 36127 ft 429 kts 284°
2026-04-26 16:19 39.13093 63.91640 36124 ft 428 kts 284°
2026-04-26 16:20 39.15624 63.80537 36119 ft 429 kts 284°
2026-04-26 16:20 39.18147 63.69413 36127 ft 429 kts 283°
2026-04-26 16:21 39.19816 63.62023 36124 ft 429 kts 283°
2026-04-26 16:21 39.21484 63.54612 36122 ft 429 kts 283°
2026-04-26 16:22 39.23144 63.47218 36119 ft 428 kts 283°
2026-04-26 16:22 39.24799 63.39812 36120 ft 428 kts 283°
2026-04-26 16:23 39.26446 63.32422 36126 ft 428 kts 283°
2026-04-26 16:23 39.28092 63.25012 36119 ft 428 kts 283°
2026-04-26 16:24 39.29729 63.17616 36119 ft 428 kts 283°
2026-04-26 16:24 39.31366 63.10203 36125 ft 427 kts 283°
2026-04-26 16:25 39.32991 63.02809 36134 ft 427 kts 283°
2026-04-26 16:25 39.34612 62.95409 36128 ft 427 kts 283°
2026-04-26 16:26 39.35954 62.89275 36132 ft 426 kts 283°
2026-04-26 16:26 39.37824 62.80684 36131 ft 426 kts 283°
2026-04-26 16:27 39.39427 62.73295 36132 ft 426 kts 283°
2026-04-26 16:27 39.41031 62.65880 36128 ft 426 kts 283°
2026-04-26 16:28 39.42624 62.58487 36132 ft 426 kts 283°
2026-04-26 16:28 39.44213 62.51088 36127 ft 426 kts 283°
2026-04-26 16:29 39.45795 62.43692 36144 ft 426 kts 283°
2026-04-26 16:29 39.47379 62.36270 36145 ft 426 kts 283°
2026-04-26 16:30 39.48953 62.28872 36136 ft 425 kts 283°
2026-04-26 16:30 39.50527 62.21449 36142 ft 425 kts 283°
2026-04-26 16:31 39.52091 62.14047 36145 ft 426 kts 282°
2026-04-26 16:31 39.53654 62.06616 36134 ft 425 kts 282°
2026-04-26 16:32 39.54945 62.00457 36144 ft 425 kts 282°
2026-04-26 16:32 39.56758 61.91787 36148 ft 426 kts 282°
2026-04-26 16:33 39.58303 61.84368 36143 ft 426 kts 282°
2026-04-26 16:33 39.59848 61.76922 36137 ft 426 kts 282°
2026-04-26 16:34 39.61383 61.69497 36147 ft 426 kts 282°
2026-04-26 16:34 39.62919 61.62040 36154 ft 426 kts 282°
2026-04-26 16:35 39.64188 61.55863 36158 ft 426 kts 282°
2026-04-26 16:35 39.65717 61.48396 36159 ft 426 kts 282°
2026-04-26 16:36 39.67235 61.40947 36159 ft 426 kts 282°
2026-04-26 16:36 39.68749 61.33495 36161 ft 426 kts 282°
2026-04-26 16:37 39.70257 61.26040 36165 ft 426 kts 282°
2026-04-26 16:37 39.71773 61.18532 36169 ft 427 kts 281°
2026-04-26 16:38 39.73276 61.11054 36169 ft 427 kts 281°
2026-04-26 16:38 39.74777 61.03562 36169 ft 428 kts 281°
2026-04-26 16:39 39.76273 60.96064 36169 ft 429 kts 281°
2026-04-26 16:39 39.77773 60.88525 36169 ft 429 kts 281°
2026-04-26 16:40 39.79264 60.81003 36170 ft 429 kts 281°
2026-04-26 16:40 39.80746 60.73493 36168 ft 430 kts 281°
2026-04-26 16:41 39.82243 60.65883 36168 ft 431 kts 281°
2026-04-26 16:41 39.83721 60.58346 36179 ft 431 kts 281°
2026-04-26 16:42 39.85199 60.50776 36193 ft 431 kts 281°
2026-04-26 16:42 39.86680 60.43164 36198 ft 432 kts 280°
2026-04-26 16:43 39.88131 60.35561 36197 ft 432 kts 279°
2026-04-26 16:43 39.89139 60.27868 36199 ft 430 kts 274°
2026-04-26 16:44 39.89555 60.20113 36198 ft 428 kts 268°
2026-04-26 16:44 39.89649 60.12356 36198 ft 428 kts 268°
2026-04-26 16:45 39.89729 60.04599 36197 ft 428 kts 268°
2026-04-26 16:45 39.89800 59.96842 36197 ft 428 kts 268°
2026-04-26 16:46 39.89866 59.89083 36197 ft 428 kts 268°
2026-04-26 16:46 39.89925 59.81318 36197 ft 428 kts 268°
2026-04-26 16:47 39.89980 59.73561 36191 ft 428 kts 268°
2026-04-26 16:47 39.90029 59.65777 36187 ft 428 kts 268°
2026-04-26 16:48 39.90074 59.58019 36173 ft 428 kts 268°
2026-04-26 16:48 39.90114 59.50238 36172 ft 429 kts 268°
2026-04-26 16:49 39.90149 59.42462 36166 ft 429 kts 268°
2026-04-26 16:49 39.90175 59.34675 36160 ft 428 kts 267°
2026-04-26 16:50 39.90179 59.26910 36160 ft 428 kts 267°
2026-04-26 16:50 39.90178 59.19111 36160 ft 429 kts 267°
2026-04-26 16:51 39.90173 59.11335 36162 ft 429 kts 267°
2026-04-26 16:51 39.90156 59.03535 36161 ft 429 kts 267°
2026-04-26 16:52 39.90129 58.97072 36159 ft 429 kts 267°
2026-04-26 16:52 39.90086 58.87977 36159 ft 429 kts 267°
2026-04-26 16:53 39.90046 58.80197 36160 ft 429 kts 267°
2026-04-26 16:53 39.90001 58.72392 36160 ft 429 kts 267°
2026-04-26 16:54 39.89952 58.64659 36161 ft 430 kts 267°
2026-04-26 16:54 39.89897 58.56864 36160 ft 430 kts 267°
2026-04-26 16:55 39.89837 58.49069 36159 ft 430 kts 266°
2026-04-26 16:55 39.89772 58.41272 36153 ft 430 kts 266°
2026-04-26 16:56 39.89666 58.29559 36144 ft 430 kts 266°
2026-04-26 16:57 39.89588 58.21766 36142 ft 430 kts 266°
2026-04-26 16:57 39.89474 58.10076 36142 ft 430 kts 266°
2026-04-26 16:58 39.89421 58.03551 36145 ft 430 kts 266°
2026-04-26 16:59 39.89304 57.90576 36142 ft 430 kts 266°
2026-04-26 17:00 39.89144 57.75001 36142 ft 429 kts 266°
2026-04-26 17:00 39.89010 57.63283 36143 ft 430 kts 266°
2026-04-26 17:01 39.88915 57.55476 36130 ft 430 kts 266°
2026-04-26 17:01 39.88814 57.47654 36129 ft 430 kts 266°
2026-04-26 17:02 39.88708 57.39849 36131 ft 430 kts 266°
2026-04-26 17:02 39.88595 57.32010 36137 ft 431 kts 266°
2026-04-26 17:03 39.88479 57.24191 36124 ft 431 kts 266°
2026-04-26 17:03 39.88356 57.16351 36114 ft 431 kts 266°
2026-04-26 17:04 39.88229 57.08533 36108 ft 431 kts 266°
2026-04-26 17:04 39.88095 57.00688 36106 ft 432 kts 266°
2026-04-26 17:05 39.87959 56.92868 36105 ft 432 kts 266°
2026-04-26 17:05 39.87816 56.85012 36099 ft 425 kts 266°
2026-04-26 17:06 39.87673 56.77415 36102 ft 415 kts 266°
2026-04-26 17:06 39.87525 56.69888 36103 ft 415 kts 266°
2026-04-26 17:07 39.87372 56.62356 36105 ft 416 kts 266°
2026-04-26 17:07 39.87215 56.54809 36104 ft 416 kts 266°
2026-04-26 17:08 39.87053 56.47277 36098 ft 416 kts 266°
2026-04-26 17:08 39.86887 56.39746 36095 ft 416 kts 266°
2026-04-26 17:09 39.86745 56.33487 36096 ft 415 kts 266°
2026-04-26 17:09 39.86538 56.24660 36095 ft 415 kts 266°
2026-04-26 17:10 39.86358 56.17135 36090 ft 415 kts 266°
2026-04-26 17:10 39.86178 56.09661 36088 ft 415 kts 266°
2026-04-26 17:11 39.85992 56.02137 36086 ft 415 kts 265°
2026-04-26 17:11 39.85802 55.94595 36085 ft 415 kts 265°
2026-04-26 17:12 39.85508 55.83313 36079 ft 415 kts 265°
2026-04-26 17:13 39.85204 55.72028 36079 ft 415 kts 265°
2026-04-26 17:14 39.84888 55.60709 36076 ft 415 kts 265°
2026-04-26 17:14 39.84561 55.49404 36068 ft 415 kts 265°
2026-04-26 17:15 39.84224 55.38104 36061 ft 415 kts 265°
2026-04-26 17:16 39.83993 55.30588 36058 ft 415 kts 265°
2026-04-26 17:16 39.83759 55.23075 36058 ft 415 kts 265°
2026-04-26 17:17 39.83520 55.15565 36063 ft 415 kts 265°
2026-04-26 17:17 39.83275 55.08052 36056 ft 415 kts 265°
2026-04-26 17:18 39.83040 55.00544 36056 ft 415 kts 266°
2026-04-26 17:18 39.82829 54.93019 36061 ft 415 kts 266°
2026-04-26 17:19 39.82696 54.81746 36047 ft 416 kts 270°
2026-04-26 17:19 39.83237 54.74219 36054 ft 417 kts 275°
2026-04-26 17:20 39.83913 54.69290 36047 ft 418 kts 279°
2026-04-26 17:20 39.85884 54.59470 36053 ft 419 kts 282°
2026-04-26 17:21 39.87438 54.52201 36049 ft 419 kts 282°
2026-04-26 17:21 39.88996 54.44879 36049 ft 418 kts 282°
2026-04-26 17:22 39.90526 54.37570 36049 ft 417 kts 282°
2026-04-26 17:22 39.91803 54.31428 36048 ft 417 kts 282°
2026-04-26 17:23 39.93323 54.24114 36045 ft 418 kts 282°
2026-04-26 17:23 39.94838 54.16797 36049 ft 417 kts 282°
2026-04-26 17:24 39.96345 54.09498 36051 ft 416 kts 282°
2026-04-26 17:24 39.97850 54.02185 36046 ft 416 kts 282°
2026-04-26 17:25 39.99347 53.94888 36046 ft 416 kts 281°
2026-04-26 17:25 40.00839 53.87588 36063 ft 416 kts 281°
2026-04-26 17:26 40.02327 53.80283 36057 ft 416 kts 281°
2026-04-26 17:26 40.03815 53.72950 36064 ft 416 kts 281°
2026-04-26 17:27 40.05293 53.65639 36068 ft 416 kts 281°
2026-04-26 17:27 40.06770 53.58314 36080 ft 415 kts 281°
2026-04-26 17:28 40.08237 53.51011 36080 ft 415 kts 281°
2026-04-26 17:28 40.09703 53.43684 36084 ft 415 kts 281°
2026-04-26 17:29 40.10915 53.37606 36086 ft 415 kts 281°
2026-04-26 17:29 40.12618 53.29035 36093 ft 415 kts 281°
2026-04-26 17:30 40.14065 53.21726 36094 ft 414 kts 281°
2026-04-26 17:30 40.15501 53.14458 36090 ft 406 kts 281°
2026-04-26 17:31 40.16903 53.07327 36095 ft 403 kts 281°
2026-04-26 17:31 40.18296 53.00208 36096 ft 403 kts 281°
2026-04-26 17:32 40.19685 52.93088 36095 ft 403 kts 281°
2026-04-26 17:32 40.21081 52.85894 35810 ft 418 kts 281°
2026-04-26 17:33 40.21804 52.82162 35558 ft 424 kts 281°
2026-04-26 17:33 40.22526 52.78443 35242 ft 418 kts 281°
2026-04-26 17:33 40.23239 52.74772 34886 ft 413 kts 281°
2026-04-26 17:34 40.24630 52.67578 34185 ft 402 kts 280°
2026-04-26 17:34 40.25308 52.64051 33838 ft 396 kts 280°
2026-04-26 17:34 40.25979 52.60546 33482 ft 391 kts 280°
2026-04-26 17:34 40.26638 52.57101 33114 ft 388 kts 280°
2026-04-26 17:35 40.27296 52.53658 32867 ft 391 kts 280°
2026-04-26 17:35 40.27955 52.50195 32613 ft 392 kts 280°
2026-04-26 17:35 40.28619 52.46717 32236 ft 389 kts 280°
2026-04-26 17:35 40.29276 52.43264 31589 ft 392 kts 280°
2026-04-26 17:36 40.29936 52.39775 30863 ft 396 kts 280°
2026-04-26 17:36 40.30598 52.36256 30355 ft 397 kts 281°
2026-04-26 17:36 40.31266 52.32711 30112 ft 402 kts 281°
2026-04-26 17:36 40.31941 52.29137 29860 ft 405 kts 281°
2026-04-26 17:37 40.32620 52.25545 29608 ft 406 kts 281°
2026-04-26 17:37 40.33313 52.21865 29363 ft 423 kts 281°
2026-04-26 17:37 40.34031 52.18037 29042 ft 438 kts 281°
2026-04-26 17:38 40.35505 52.10196 28454 ft 444 kts 281°
2026-04-26 17:38 40.36246 52.06248 28201 ft 446 kts 281°
2026-04-26 17:38 40.36989 52.02283 27886 ft 448 kts 281°
2026-04-26 17:38 40.37732 51.98308 27531 ft 450 kts 281°
2026-04-26 17:39 40.38476 51.94319 27107 ft 449 kts 281°
2026-04-26 17:39 40.39216 51.90345 26548 ft 446 kts 281°
2026-04-26 17:39 40.39953 51.86380 25987 ft 442 kts 281°
2026-04-26 17:39 40.40677 51.82468 25425 ft 439 kts 281°
2026-04-26 17:40 40.41396 51.78584 24879 ft 436 kts 281°
2026-04-26 17:40 40.41867 51.76031 24607 ft 432 kts 281°
2026-04-26 17:40 40.42812 51.70903 24253 ft 431 kts 281°
2026-04-26 17:40 40.43506 51.67126 24087 ft 431 kts 281°
2026-04-26 17:41 40.44210 51.63294 24003 ft 430 kts 281°
2026-04-26 17:41 40.44906 51.59496 23627 ft 425 kts 281°
2026-04-26 17:41 40.45601 51.55693 23008 ft 424 kts 281°
2026-04-26 17:41 40.46263 51.51934 22453 ft 420 kts 279°
2026-04-26 17:42 40.46781 51.48175 22107 ft 416 kts 277°
2026-04-26 17:42 40.47166 51.44400 22070 ft 417 kts 275°
2026-04-26 17:42 40.47530 51.40588 22064 ft 418 kts 275°
2026-04-26 17:42 40.47887 51.36792 22062 ft 418 kts 275°
2026-04-26 17:43 40.48243 51.32997 22061 ft 418 kts 275°
2026-04-26 17:43 40.48597 51.29201 22060 ft 416 kts 275°
2026-04-26 17:43 40.48943 51.25496 22050 ft 400 kts 275°
2026-04-26 17:43 40.49276 51.21929 22045 ft 385 kts 275°
2026-04-26 17:44 40.49595 51.18498 21695 ft 373 kts 275°
2026-04-26 17:44 40.49908 51.15086 20403 ft 379 kts 275°
2026-04-26 17:44 40.50228 51.11570 19007 ft 386 kts 275°
2026-04-26 17:44 40.50549 51.08045 17793 ft 388 kts 275°
2026-04-26 17:45 40.50870 51.04533 16918 ft 386 kts 275°
2026-04-26 17:45 40.51190 51.01030 16347 ft 386 kts 275°
2026-04-26 17:45 40.51509 50.97504 16013 ft 384 kts 275°
2026-04-26 17:45 40.51877 50.94056 15477 ft 378 kts 278°
2026-04-26 17:46 40.52411 50.90678 14991 ft 376 kts 282°
2026-04-26 17:46 40.53114 50.87340 14300 ft 380 kts 285°
2026-04-26 17:46 40.53890 50.84022 13769 ft 378 kts 285°
2026-04-26 17:46 40.54670 50.80732 13314 ft 374 kts 285°
2026-04-26 17:47 40.55432 50.77529 12813 ft 359 kts 285°
2026-04-26 17:47 40.55916 50.75482 12503 ft 348 kts 285°
2026-04-26 17:47 40.56849 50.71543 12077 ft 325 kts 284°
2026-04-26 17:47 40.57518 50.68697 12062 ft 325 kts 284°
2026-04-26 17:48 40.58185 50.65851 12091 ft 326 kts 284°
2026-04-26 17:48 40.58853 50.62997 12086 ft 325 kts 284°
2026-04-26 17:48 40.59520 50.60145 12066 ft 325 kts 285°
2026-04-26 17:48 40.60447 50.57422 12048 ft 330 kts 298°
2026-04-26 17:49 40.61750 50.54796 12065 ft 356 kts 301°
2026-04-26 17:49 40.63189 50.52020 12059 ft 374 kts 301°
2026-04-26 17:49 40.64655 50.49159 12056 ft 377 kts 301°
2026-04-26 17:49 40.66108 50.46273 12054 ft 378 kts 301°
2026-04-26 17:50 40.67547 50.43375 12031 ft 377 kts 300°
2026-04-26 17:50 40.68974 50.40474 11668 ft 377 kts 300°
2026-04-26 17:50 40.70397 50.37566 11246 ft 374 kts 300°
2026-04-26 17:50 40.71798 50.34693 10851 ft 370 kts 300°
2026-04-26 17:51 40.73165 50.31886 10708 ft 356 kts 300°
2026-04-26 17:51 40.74481 50.29186 10615 ft 343 kts 300°
2026-04-26 17:51 40.75749 50.26578 10514 ft 330 kts 300°
2026-04-26 17:51 40.76966 50.24068 10362 ft 320 kts 300°
2026-04-26 17:52 40.78146 50.21632 10186 ft 310 kts 300°
2026-04-26 17:52 40.79308 50.19265 9950 ft 304 kts 302°
2026-04-26 17:52 40.80315 50.16870 9485 ft 294 kts 281°
2026-04-26 17:52 40.80327 50.14260 8862 ft 282 kts 247°
2026-04-26 17:53 40.79319 50.12125 8221 ft 273 kts 220°
2026-04-26 17:53 40.77789 50.10702 7612 ft 267 kts 202°
2026-04-26 17:53 40.76023 50.09973 7028 ft 263 kts 189°
2026-04-26 17:54 40.72517 50.08991 6169 ft 248 kts 191°
2026-04-26 17:54 40.70893 50.08478 5876 ft 232 kts 191°
2026-04-26 17:54 40.69376 50.07979 5483 ft 220 kts 191°
2026-04-26 17:54 40.67897 50.07485 4788 ft 223 kts 192°
2026-04-26 17:55 40.66344 50.06962 3803 ft 237 kts 192°
2026-04-26 17:55 40.64757 50.06421 3280 ft 229 kts 192°
2026-04-26 17:55 40.63228 50.06109 2914 ft 216 kts 182°
2026-04-26 17:55 40.61745 50.06062 2579 ft 212 kts 178°
2026-04-26 17:56 40.60275 50.06095 2308 ft 211 kts 178°
2026-04-26 17:56 40.57402 50.06154 1829 ft 199 kts 178°
2026-04-26 17:57 40.54730 50.06191 1236 ft 184 kts 179°
2026-04-26 17:57 40.53491 50.06209 964 ft 171 kts 178°
2026-04-26 17:57 40.52340 50.06226 767 ft 161 kts 178°
2026-04-26 17:57 40.51215 50.06243 602 ft 162 kts 179°
2026-04-26 17:58 40.47961 50.06291 22 ft 126 kts 179°
2026-04-26 17:59 40.46913 50.06300 23 ft 58 kts 179°
2026-04-26 17:59 40.46630 50.06299 26 ft 19 kts 199°
2026-04-26 17:59 40.46584 50.06173 25 ft 3 kts 267°
2026-04-26 17:59 40.46584 50.06165 23 ft 2 kts 267°
2026-04-26 18:00 40.46583 50.06155 23 ft 0 kts 268°
2026-04-26 18:02 40.46583 50.06138 23 ft 4 kts 268°
2026-04-26 18:02 40.46582 50.06124 23 ft 5 kts 268°
2026-04-26 18:02 40.46580 50.06058 23 ft 3 kts 268°
2026-04-26 18:02 40.46547 50.05971 23 ft 12 kts 216°
2026-04-26 18:03 40.46512 50.05902 23 ft 11 kts 268°
2026-04-26 18:03 40.46512 50.05776 25 ft 17 kts 269°
2026-04-26 18:03 40.46528 50.05611 23 ft 19 kts 304°
2026-04-26 18:03 40.46644 50.05498 23 ft 20 kts 330°
2026-04-26 18:04 40.46714 50.05443 26 ft 4 kts 319°
2026-04-26 18:04 40.46729 50.05411 25 ft 5 kts 289°
2026-04-26 18:04 40.46716 50.05372 25 ft 6 kts 228°
2026-04-26 18:05 40.46689 50.05330 23 ft 3 kts 230°
2026-04-26 18:05 40.46688 50.05329 23 ft 0 kts 230°